�N����,����,�~����,�C��,���x,�C��,����,���ϕ���,�ő�u�ԕ���,�ő厞����,���˗�,�I�_���x,�n�����x,�ő啗���N��,DTYPE
"22/05/11","00:10",0.0,17.1,67.4,1013.8,308.1,0.6,1.7,324.3,0.00,11.1,17.0,"00:07:28",1
"22/05/11","00:20",0.0,16.9,68.4,1013.5,310.3,1.2,1.8,316.8,0.00,11.1,17.2,"00:15:36",1
"22/05/11","00:30",0.0,16.4,69.8,1013.8,289.8,1.2,1.7,310.8,0.00,10.9,17.1,"00:25:04",1
"22/05/11","00:40",0.0,16.2,70.9,1013.5,284.9,1.3,2.0,265.9,0.00,11.0,17.0,"00:30:24",1
"22/05/11","00:50",0.0,16.0,71.7,1013.3,302.1,1.2,1.6,295.0,0.00,10.9,17.1,"00:46:40",1
"22/05/11","01:00",0.0,15.9,72.6,1013.8,283.3,1.3,1.7,263.4,0.00,11.0,16.9,"00:57:12",1
"22/05/11","01:10",0.0,15.9,73.4,1013.5,283.9,1.6,1.9,300.7,0.00,11.2,16.9,"01:06:16",1
"22/05/11","01:20",0.0,15.9,73.8,1013.3,299.2,1.3,1.8,316.1,0.00,11.3,17.0,"01:10:08",1
"22/05/11","01:30",0.0,15.8,74.3,1013.3,294.7,1.5,2.2,312.9,0.00,11.3,16.9,"01:28:00",1
"22/05/11","01:40",0.0,15.8,74.8,1013.3,296.1,1.2,1.7,281.6,0.00,11.4,16.9,"01:30:56",1
"22/05/11","01:50",0.0,16.0,75.1,1013.3,291.3,1.2,2.0,273.2,0.00,11.6,16.7,"01:46:48",1
"22/05/11","02:00",0.0,16.1,75.2,1013.0,306.9,1.3,1.9,315.2,0.00,11.8,16.7,"01:55:20",1
"22/05/11","02:10",0.0,16.2,75.1,1013.0,288.0,1.1,1.3,310.8,0.00,11.8,16.7,"02:04:08",1
"22/05/11","02:20",0.0,16.3,74.8,1012.8,276.9,1.2,1.6,274.3,0.00,11.9,16.8,"02:15:12",1
"22/05/11","02:30",0.0,16.5,74.3,1012.8,292.2,1.2,1.8,262.3,0.00,12.0,16.7,"02:27:12",1
"22/05/11","02:40",0.0,16.5,73.7,1013.0,301.1,1.5,1.8,323.3,0.00,11.8,17.0,"02:31:28",1
"22/05/11","02:50",0.0,16.7,73.1,1013.3,301.4,1.1,1.8,314.8,0.00,11.9,16.7,"02:47:28",1
"22/05/11","03:00",0.0,16.6,72.9,1013.0,291.6,0.7,1.0,269.5,0.00,11.8,16.6,"02:59:44",1
"22/05/11","03:10",0.0,16.5,73.5,1012.8,301.9,1.5,2.2,323.6,0.00,11.8,16.6,"03:03:36",1
"22/05/11","03:20",0.0,16.5,73.9,1012.6,301.7,1.0,1.6,262.6,0.00,11.9,16.5,"03:18:32",1
"22/05/11","03:30",0.0,16.5,74.2,1012.6,272.8,1.3,2.0,270.4,0.00,11.9,16.5,"03:28:24",1
"22/05/11","03:40",0.0,16.5,74.1,1012.8,299.2,1.1,1.6,269.2,0.00,11.9,16.5,"03:36:08",1
"22/05/11","03:50",0.0,16.4,74.3,1013.0,304.5,1.1,1.9,315.3,0.00,11.9,16.7,"03:44:48",1
"22/05/11","04:00",0.0,16.4,74.5,1013.0,308.0,1.2,1.7,318.7,0.00,11.9,16.7,"03:58:16",1
"22/05/11","04:10",0.0,16.3,75.1,1012.6,301.3,1.3,1.9,318.8,0.00,11.9,16.6,"04:05:44",1
"22/05/11","04:20",0.0,16.3,75.5,1013.0,298.2,1.1,1.4,311.6,0.00,12.0,16.5,"04:11:36",1
"22/05/11","04:30",0.0,16.2,75.9,1013.0,289.8,1.0,1.6,321.1,0.00,12.0,16.6,"04:20:16",1
"22/05/11","04:40",0.0,16.2,76.4,1012.6,307.8,1.1,1.9,323.1,0.00,12.1,16.7,"04:39:52",1
"22/05/11","04:50",0.0,16.1,77.0,1013.0,304.2,1.5,1.9,323.3,0.00,12.1,16.4,"04:44:32",1
"22/05/11","05:00",0.0,16.2,77.4,1012.8,300.9,1.1,1.8,314.6,0.00,12.3,16.5,"04:53:36",1
"22/05/11","05:10",0.0,16.2,77.7,1013.0,286.2,1.1,1.8,285.7,0.00,12.3,16.7,"05:06:32",1
"22/05/11","05:20",0.0,16.2,78.0,1013.3,302.4,1.3,1.9,317.5,0.00,12.4,16.4,"05:16:48",1
"22/05/11","05:30",0.0,16.1,78.3,1012.8,292.6,1.1,1.6,309.0,0.00,12.4,16.5,"05:21:12",1
"22/05/11","05:40",0.0,16.2,78.8,1013.0,304.5,1.5,2.0,312.2,0.00,12.6,16.3,"05:31:44",1
"22/05/11","05:50",0.0,16.3,79.1,1013.3,314.6,1.3,1.9,326.1,0.00,12.7,16.7,"05:41:20",1
"22/05/11","06:00",0.0,16.2,79.6,1013.0,305.2,1.2,2.0,318.9,0.00,12.7,16.6,"05:56:16",1
"22/05/11","06:10",0.0,16.2,79.8,1013.3,298.5,1.0,1.4,326.6,0.00,12.8,16.7,"06:09:36",1
"22/05/11","06:20",0.0,16.4,80.1,1013.3,294.4,1.2,1.7,319.5,0.00,13.0,16.4,"06:10:24",1
"22/05/11","06:30",0.0,16.5,80.5,1013.5,296.7,1.2,2.2,314.6,0.00,13.2,16.4,"06:23:20",1
"22/05/11","06:40",0.0,16.6,80.8,1013.5,298.7,0.7,1.2,323.4,0.00,13.3,16.5,"06:30:56",1
"22/05/11","06:50",0.0,16.8,81.1,1013.8,306.7,1.1,1.4,315.8,0.00,13.6,16.3,"06:49:28",1
"22/05/11","07:00",0.0,17.0,81.6,1013.8,286.0,1.1,1.7,319.4,0.01,13.9,16.5,"06:52:40",1
"22/05/11","07:10",0.0,17.0,82.0,1014.0,315.7,1.0,1.7,303.4,0.01,13.9,16.3,"07:03:12",1
"22/05/11","07:20",0.0,17.2,82.5,1014.0,320.0,1.2,1.6,329.1,0.01,14.2,16.4,"07:15:52",1
"22/05/11","07:30",0.0,17.4,82.9,1013.5,337.1,0.8,1.6,343.8,0.02,14.5,16.3,"07:23:04",1
"22/05/11","07:40",0.0,17.4,83.0,1014.0,334.3,0.7,1.4,347.3,0.02,14.5,16.4,"07:31:28",1
"22/05/11","07:50",0.0,17.6,83.0,1014.0,337.7,1.1,2.1,343.8,0.02,14.7,16.5,"07:42:40",1
"22/05/11","08:00",0.0,17.6,82.7,1014.0,303.8,0.5,1.2,338.0,0.01,14.7,16.4,"07:55:36",1
"22/05/11","08:10",0.0,17.7,81.9,1014.2,2.0,0.5,1.0,358.7,0.02,14.6,16.5,"08:03:20",1
"22/05/11","08:20",0.0,17.9,81.2,1014.0,334.5,0.8,1.7,348.2,0.02,14.7,16.4,"08:11:28",1
"22/05/11","08:30",0.0,17.9,81.5,1014.2,330.8,1.1,1.8,341.0,0.03,14.7,16.6,"08:22:08",1
"22/05/11","08:40",0.0,18.0,82.2,1014.5,337.6,1.1,2.0,347.5,0.05,15.0,16.3,"08:38:32",1
"22/05/11","08:50",0.0,17.7,83.0,1014.2,310.4,1.2,2.5,340.2,0.05,14.8,16.4,"08:43:04",1
"22/05/11","09:00",0.2,17.7,83.4,1014.2,328.0,0.7,1.6,337.3,0.05,14.9,16.5,"08:50:48",1
"22/05/11","09:10",0.0,17.8,83.7,1014.5,345.2,0.7,1.3,326.5,0.04,15.0,16.5,"09:07:20",1
"22/05/11","09:20",0.0,17.9,83.9,1014.5,323.6,0.7,1.7,338.2,0.05,15.2,16.6,"09:19:28",1
"22/05/11","09:30",0.0,18.0,84.1,1014.7,331.7,0.7,1.4,339.2,0.08,15.3,16.5,"09:23:20",1
"22/05/11","09:40",0.0,17.8,83.7,1014.7,338.2,1.1,2.4,336.8,0.09,15.0,16.3,"09:37:20",1
"22/05/11","09:50",0.0,17.8,83.4,1014.9,338.7,0.8,1.6,12.5,0.08,15.0,16.5,"09:42:24",1
"22/05/11","10:00",0.0,18.0,82.5,1014.9,8.4,0.3,1.0,321.8,0.08,15.0,16.5,"09:53:52",1
"22/05/11","10:10",0.2,18.4,81.7,1014.5,355.0,0.5,1.1,319.7,0.13,15.3,16.4,"10:01:20",1
"22/05/11","10:20",0.0,18.5,80.5,1014.9,352.9,0.5,1.1,3.6,0.14,15.1,16.3,"10:18:16",1
"22/05/11","10:30",0.0,18.7,79.0,1014.9,356.0,0.8,1.9,351.1,0.14,15.0,16.4,"10:29:12",1
"22/05/11","10:40",0.0,19.2,77.6,1014.9,337.0,1.1,2.1,354.9,0.17,15.2,16.5,"10:36:40",1
"22/05/11","10:50",0.0,19.3,76.1,1014.2,10.2,0.5,1.9,82.0,0.13,15.0,16.3,"10:47:20",1
"22/05/11","11:00",0.0,19.1,74.3,1014.7,102.8,0.7,2.1,124.4,0.10,14.5,16.6,"10:55:04",1
"22/05/11","11:10",0.0,19.4,74.0,1014.7,65.8,0.7,2.5,119.5,0.15,14.7,16.4,"11:01:52",1
"22/05/11","11:20",0.0,19.4,72.4,1014.5,83.6,0.8,2.6,80.4,0.15,14.4,16.5,"11:18:56",1
"22/05/11","11:30",0.0,19.9,71.3,1014.5,93.0,1.1,3.5,103.4,0.21,14.6,16.7,"11:29:04",1
"22/05/11","11:40",0.0,19.7,69.5,1014.2,95.9,0.8,2.0,98.2,0.13,14.0,16.6,"11:30:08",1
"22/05/11","11:50",0.0,19.6,68.5,1014.5,93.4,1.1,2.9,36.9,0.10,13.7,16.8,"11:42:00",1
"22/05/11","12:00",0.0,19.8,70.3,1014.0,118.3,0.7,2.2,119.3,0.15,14.3,16.7,"11:51:04",1
"22/05/11","12:10",0.0,19.7,69.9,1013.8,42.0,1.1,3.1,112.3,0.20,14.1,16.7,"12:03:36",1
"22/05/11","12:20",0.0,20.8,68.1,1013.8,59.2,0.8,2.1,1.7,0.34,14.7,16.7,"12:13:28",1
"22/05/11","12:30",0.0,21.4,63.6,1013.3,67.1,1.0,2.7,28.9,0.27,14.3,16.9,"12:26:24",1
"22/05/11","12:40",0.0,22.0,63.4,1013.0,140.6,1.1,2.8,130.8,0.34,14.8,16.9,"12:38:24",1
"22/05/11","12:50",0.0,22.6,61.5,1013.0,50.0,1.2,2.9,180.1,0.40,14.9,16.9,"12:48:32",1
"22/05/11","13:00",0.0,23.8,58.9,1012.6,107.6,1.1,3.3,83.0,0.62,15.3,16.7,"12:57:52",1
"22/05/11","13:10",0.0,23.8,58.9,1012.3,132.4,2.0,3.6,121.8,0.59,15.3,17.1,"13:00:02",1
"22/05/11","13:20",0.0,23.8,56.1,1011.9,148.2,2.3,4.4,138.2,0.60,14.6,16.9,"13:13:36",1
"22/05/11","13:30",0.0,24.6,56.9,1012.1,131.0,1.6,3.3,123.1,0.64,15.5,17.0,"13:24:56",1
"22/05/11","13:40",0.0,24.2,51.2,1011.9,115.3,1.8,4.1,177.6,0.57,13.5,17.1,"13:31:52",1
"22/05/11","13:50",0.0,24.7,55.7,1011.4,146.8,1.8,3.6,148.0,0.57,15.3,17.2,"13:42:48",1
"22/05/11","14:00",0.0,24.8,53.0,1011.4,124.9,1.1,2.9,148.3,0.43,14.6,17.3,"13:50:02",1
"22/05/11","14:10",0.0,24.0,52.9,1010.9,141.5,1.5,4.0,150.2,0.31,13.9,17.5,"14:06:48",1
"22/05/11","14:20",0.0,24.0,53.6,1010.9,160.5,1.2,2.7,130.4,0.31,14.1,17.4,"14:14:08",1
"22/05/11","14:30",0.0,24.5,52.1,1010.7,118.1,1.0,2.5,144.1,0.33,14.1,17.5,"14:26:32",1
"22/05/11","14:40",0.0,25.3,52.9,1010.2,119.8,1.1,2.1,165.3,0.42,15.1,17.5,"14:37:44",1
"22/05/11","14:50",0.0,25.8,51.2,1010.0,116.5,1.5,4.5,142.0,0.51,15.0,17.6,"14:48:40",1
"22/05/11","15:00",0.0,25.5,50.9,1010.0,141.8,1.8,4.1,120.0,0.45,14.6,17.7,"14:58:08",1
"22/05/11","15:10",0.0,26.0,49.3,1010.0,137.9,1.3,3.1,131.2,0.47,14.6,17.7,"15:00:08",1
"22/05/11","15:20",0.0,26.4,50.3,1010.0,139.8,1.0,2.6,139.9,0.45,15.3,17.8,"15:10:08",1
"22/05/11","15:30",0.0,26.6,48.5,1009.3,173.6,1.2,2.8,130.8,0.44,14.9,17.9,"15:26:16",1
"22/05/11","15:40",0.0,25.9,51.3,1009.0,191.2,1.5,2.5,161.6,0.30,15.1,18.0,"15:38:16",1
"22/05/11","15:50",0.0,26.5,49.3,1008.8,222.0,1.0,2.5,187.1,0.34,15.1,18.1,"15:40:56",1
"22/05/11","16:00",0.0,26.1,47.7,1008.8,125.5,1.2,2.6,197.1,0.22,14.2,18.2,"15:51:44",1
"22/05/11","16:10",0.0,26.8,47.6,1009.0,224.8,0.8,2.6,156.3,0.31,14.8,18.2,"16:09:28",1
"22/05/11","16:20",0.0,26.9,46.4,1009.0,110.4,0.8,2.6,47.9,0.32,14.5,18.2,"16:17:44",1
"22/05/11","16:30",0.0,26.7,45.6,1009.3,94.9,1.1,3.4,117.4,0.31,14.0,18.1,"16:28:00",1
"22/05/11","16:40",0.0,26.4,47.6,1008.8,317.2,1.5,3.2,331.1,0.22,14.4,18.2,"16:32:48",1
"22/05/11","16:50",0.0,26.2,47.0,1008.6,130.2,1.1,2.4,119.1,0.21,14.0,18.3,"16:42:32",1
"22/05/11","17:00",0.0,26.2,49.5,1009.0,159.3,1.2,2.7,200.9,0.22,14.8,18.3,"16:56:56",1
"22/05/11","17:10",0.0,25.5,48.4,1009.3,118.0,0.8,2.0,53.2,0.09,13.9,18.3,"17:09:12",1
"22/05/11","17:20",0.0,25.2,49.4,1009.3,69.5,0.7,2.0,13.0,0.07,13.9,18.4,"17:17:04",1
"22/05/11","17:30",0.0,24.5,51.0,1009.5,108.0,1.2,2.9,82.8,0.04,13.7,18.4,"17:24:40",1
"22/05/11","17:40",0.0,24.3,53.1,1009.7,124.6,1.1,2.6,132.7,0.05,14.2,18.6,"17:38:16",1
"22/05/11","17:50",0.0,24.1,52.8,1009.5,122.1,1.1,3.1,110.5,0.04,13.9,18.6,"17:44:00",1
"22/05/11","18:00",0.0,23.9,53.8,1009.5,124.2,1.1,2.7,124.2,0.02,14.0,18.7,"17:57:28",1
"22/05/11","18:10",0.0,23.9,53.9,1009.7,103.2,1.0,2.5,118.3,0.02,14.0,18.7,"18:05:04",1
"22/05/11","18:20",0.0,23.9,54.2,1010.0,94.0,0.7,2.1,107.7,0.01,14.1,18.6,"18:18:16",1
"22/05/11","18:30",0.0,23.4,54.7,1010.2,111.1,1.2,3.3,108.3,0.00,13.8,18.6,"18:25:12",1
"22/05/11","18:40",0.0,23.2,54.6,1010.2,84.1,0.8,2.1,17.0,0.00,13.6,18.5,"18:37:52",1
"22/05/11","18:50",0.0,23.2,54.9,1010.4,17.1,0.8,2.6,19.1,0.00,13.7,18.4,"18:44:40",1
"22/05/11","19:00",0.0,22.8,55.5,1010.7,343.6,0.6,1.9,9.1,0.00,13.5,18.6,"18:57:52",1
"22/05/11","19:10",0.0,22.4,56.5,1010.2,322.7,0.6,1.4,327.8,0.00,13.4,18.6,"19:03:20",1
"22/05/11","19:20",0.0,21.9,58.0,1010.9,357.1,0.6,1.6,326.9,0.00,13.3,18.6,"19:18:16",1
"22/05/11","19:30",0.0,21.6,59.2,1011.2,321.9,1.0,1.8,339.7,0.00,13.3,18.6,"19:21:12",1
"22/05/11","19:40",0.0,21.2,60.6,1011.4,336.8,0.7,1.9,334.2,0.00,13.3,18.5,"19:31:04",1
"22/05/11","19:50",0.0,20.9,62.3,1011.4,341.8,1.1,1.6,341.2,0.00,13.5,18.4,"19:47:12",1
"22/05/11","20:00",0.0,20.3,64.1,1011.6,325.7,1.1,2.1,333.1,0.00,13.3,18.6,"19:58:08",1
"22/05/11","20:10",0.0,19.6,66.1,1011.9,322.4,1.2,1.9,322.6,0.00,13.1,18.5,"20:06:32",1
"22/05/11","20:20",0.0,19.4,67.8,1012.1,314.1,1.2,2.0,338.6,0.00,13.3,18.6,"20:11:44",1
"22/05/11","20:30",0.0,19.3,68.8,1012.6,320.3,1.3,1.9,331.3,0.00,13.5,18.4,"20:27:28",1
"22/05/11","20:40",0.0,19.0,69.4,1012.1,316.6,1.2,1.6,322.5,0.00,13.3,18.3,"20:31:36",1
"22/05/11","20:50",0.0,18.8,70.5,1012.6,325.4,1.3,2.2,337.8,0.00,13.4,18.3,"20:44:56",1
"22/05/11","21:00",0.0,18.3,71.6,1012.3,286.3,0.8,1.4,316.9,0.00,13.1,18.3,"20:51:04",1
"22/05/11","21:10",0.0,18.3,72.6,1012.8,274.9,1.2,1.8,304.4,0.00,13.3,18.2,"21:09:36",1
"22/05/11","21:20",0.0,18.3,73.2,1012.6,315.1,1.3,2.0,338.9,0.00,13.5,18.1,"21:16:00",1
"22/05/11","21:30",0.0,18.1,74.4,1013.0,334.9,1.5,2.0,338.2,0.00,13.5,18.1,"21:22:16",1
"22/05/11","21:40",0.0,18.0,75.3,1013.0,331.7,1.3,1.9,319.5,0.00,13.6,18.2,"21:32:40",1
"22/05/11","21:50",0.0,18.0,75.8,1013.0,311.2,1.0,1.4,330.3,0.00,13.7,18.1,"21:40:24",1
"22/05/11","22:00",0.0,17.9,76.1,1013.0,275.3,0.8,1.4,301.0,0.00,13.7,18.2,"21:52:56",1
"22/05/11","22:10",0.0,18.0,76.3,1013.3,288.9,1.2,1.9,290.7,0.00,13.8,18.0,"22:07:04",1
"22/05/11","22:20",0.0,18.2,75.8,1013.3,300.9,1.2,1.8,307.3,0.00,13.9,18.0,"22:10:32",1
"22/05/11","22:30",0.0,18.3,75.5,1013.3,333.4,1.3,2.0,332.5,0.00,13.9,18.0,"22:29:36",1
"22/05/11","22:40",0.0,18.2,75.7,1013.5,318.5,1.5,1.8,321.4,0.00,13.9,18.0,"22:36:00",1
"22/05/11","22:50",0.0,18.1,76.0,1013.3,291.3,0.8,1.9,312.7,0.00,13.8,18.0,"22:44:48",1
"22/05/11","23:00",0.0,18.0,76.6,1013.3,301.3,1.1,1.7,266.8,0.00,13.9,17.8,"22:58:56",1
"22/05/11","23:10",0.0,18.0,76.9,1013.3,297.1,1.5,2.4,252.1,0.00,13.9,18.1,"23:08:32",1
"22/05/11","23:20",0.0,18.2,77.1,1013.3,329.7,1.8,2.8,337.7,0.00,14.2,17.7,"23:15:28",1
"22/05/11","23:30",0.0,18.2,77.3,1013.3,332.5,1.6,2.7,326.8,0.00,14.2,17.8,"23:23:44",1
"22/05/11","23:40",0.0,18.1,77.7,1013.0,296.9,1.0,1.4,321.5,0.00,14.2,17.8,"23:30:08",1
"22/05/11","23:50",0.0,18.0,78.5,1012.8,294.3,1.1,1.7,315.8,0.00,14.2,17.8,"23:47:52",1
"22/05/11","24:00",0.0,18.0,79.0,1012.8,319.1,1.3,1.8,324.2,0.00,14.3,17.9,"23:51:52",1
